Terug naar catalogus

THORAD AGENA D DEB

ActiefPO
NORAD 4682·DEBRIS·🇺🇸 United States

Gelanceerd Apr 8, 1970 vanaf Vandenberg Space Force Base

Loading…

Volgende Passages (komende 24 uur)

TLE

VersSource: Space-Track

Epoch: Sep 14, 2026, 12:27 UTC

1 04682U 70025BF  26257.51922873  .00000146  00000-0  41367-3 0  9998
2 04682  99.7389 263.4585 0143549 304.4480 210.5359 13.24566084719910

Volg THORAD AGENA D DEB in realtime met AllMySat

Download on the App Store